This demonstration page uses our WeatherBlox Daily Observations layout. Learn more.

Left ArrowRight Arrow

36.17497, -115.13722

Hourly Observations for September 2, 2020

Temp ( °F °C ) Dew Point ( °F °C ) Humidity (%) Winds ( mph kmh ) Pressure ( in mb ) Visibility ( mi km ) Precip ( " mm )
12:53 am 00:53 Clear 85 29.4 33 0.6 15 15 W 5 7 29.91 1013 10 16 N/A
1:53 am 01:53 Clear 81 27.2 37 2.8 21 21 WNW 5 7 29.91 1013 10 16 N/A
2:53 am 02:53 Clear 79 26.1 36 2.2 21 21 SW 5 7 29.91 1013 10 16 N/A
3:53 am 03:53 Clear 82 27.8 32 undefined 16 16 SSE 5 7 29.91 1013 10 16 N/A
4:53 am 04:53 Clear 78 25.6 33 0.6 19 19 N 5 7 29.92 1013 10 16 N/A
5:53 am 05:53 Clear 77 25 37 2.8 24 24 WNW 7 11 29.94 1014 10 16 N/A
6:53 am 06:53 Sunny 76 24.4 36 2.2 23 23 NW 6 9 29.97 1015 10 16 N/A
7:53 am 07:53 Sunny 83 28.3 36 2.2 19 19 WSW 3 6 29.98 1015 10 16 N/A
8:53 am 08:53 Sunny 87 30.6 32 undefined 14 14 N N/A 29.98 1015 10 16 N/A
9:53 am 09:53 Sunny 89 31.7 33 0.6 14 14 S 3 6 30.00 1016 10 16 N/A
10:53 am 10:53 Sunny 94 34.4 32 undefined 11 11 VRB 3 6 29.99 1016 10 16 N/A
11:53 am 11:53 Sunny 97 36.1 31 -0.6 10 10 N N/A 29.97 1015 10 16 N/A
12:53 pm 12:53 Sunny 98 36.7 31 -0.6 9 9 ENE 6 9 29.94 1014 10 16 N/A
1:53 pm 13:53 Sunny 99 37.2 31 -0.6 9 9 N N/A 29.91 1013 10 16 N/A
2:53 pm 14:53 Sunny 103 39.4 32 undefined 8 8 ESE 7 11 29.88 1012 10 16 N/A
3:53 pm 15:53 Sunny 103 39.4 32 undefined 8 8 ENE 6 9 29.85 1011 10 16 N/A
4:53 pm 16:53 Sunny 103 39.4 32 undefined 8 8 N N/A 29.85 1011 10 16 N/A
5:53 pm 17:53 Sunny 103 39.4 31 -0.6 8 8 ESE 7 11 29.84 1010 10 16 N/A
6:53 pm 18:53 Sunny 100 37.8 31 -0.6 9 9 E 6 9 29.84 1011 10 16 N/A
7:53 pm 19:53 Clear 98 36.7 31 -0.6 9 9 N N/A 29.85 1011 10 16 N/A
8:53 pm 20:53 Clear 96 35.6 35 1.7 12 12 WSW 3 6 29.85 1011 10 16 N/A
9:53 pm 21:53 Clear 92 33.3 36 2.2 14 14 W 5 7 29.86 1011 10 16 N/A
10:53 pm 22:53 Clear 90 32.2 36 2.2 15 15 N 5 7 29.86 1011 10 16 N/A
11:53 pm 23:53 Clear 84 28.9 36 2.2 18 18 NW 5 7 29.87 1011 10 16 N/A

Powered by AerisWeather